Volver al catálogo

STARLINK-35518

ActivoComunicacionesVLEO
NORAD 66198·PAYLOAD·🇺🇸 United States

Lanzado Oct 26, 2025 desde Cape Canaveral Space Force Station

Loading…

Próximos Pases (próximas 24 horas)

TLE

ActualizadoSource: CelesTrak SupGP

Época: Sep 14, 2026, 23:02 UTC

1 66198C 25243X   26257.96020833  .00027041  00000+0  79903-3 0  2570
2 66198  53.1584  85.2873 0001078  91.2824 267.0319 15.34373189    16

Sigue STARLINK-35518 en tiempo real con AllMySat

Download on the App Store